This is the latest recevied weather packets stored in our database for station/object KD2DXJ. If no packets are shown the sender has not sent any weather packets the latest 10 day(s).
| Time | Temp. | Humidity | Pressure | Rain* | Wind** | Luminosity | Snow |
|---|---|---|---|---|---|---|---|
| 1778025202 | 10.56° C | 88% | 1008.1 hPa | 1.27 mm | - | 1 W/m² | - |
| 1778024899 | 11.11° C | 84% | 1007.7 hPa | 1.78 mm | - | 1 W/m² | - |
| 1778024597 | 11.67° C | 83% | 1007.5 hPa | 1.78 mm | - | 1 W/m² | - |
| 1778024293 | 12.22° C | 76% | 1007.5 hPa | 0 mm | - | 2 W/m² | - |
| 1778023991 | 12.78° C | 72% | 1007.2 hPa | 0 mm | - | 2 W/m² | - |
| 1778023688 | 13.33° C | 68% | 1006.8 hPa | 0 mm | - | 2 W/m² | - |
| 1778023386 | 14.44° C | 65% | 1006.7 hPa | 0 mm | - | 2 W/m² | - |
| 1778023082 | 14.44° C | 65% | 1006.2 hPa | 0 mm | - | 4 W/m² | - |
| 1778022781 | 14.44° C | 66% | 1006 hPa | 0 mm | - | 5 W/m² | - |
| 1778022478 | 14.44° C | 66% | 1006 hPa | 0 mm | - | 6 W/m² | - |
| 1778022175 | 14.44° C | 66% | 1005.9 hPa | 0 mm | - | 7 W/m² | - |
| 1778021872 | 15° C | 66% | 1005.9 hPa | 0 mm | - | 7 W/m² | - |
| 1778021569 | 15° C | 65% | 1005.7 hPa | 0 mm | - | 4 W/m² | - |
| 1778021264 | 15° C | 63% | 1005.6 hPa | 0 mm | - | 9 W/m² | - |
| 1778020962 | 15.56° C | 62% | 1005.3 hPa | 0 mm | - | 9 W/m² | - |
| 1778020659 | 15.56° C | 62% | 1005.4 hPa | 0 mm | - | 16 W/m² | - |
| 1778020355 | 15.56° C | 62% | 1005.1 hPa | 0 mm | - | 18 W/m² | - |
| 1778020051 | 15.56° C | 63% | 1005.1 hPa | 0 mm | - | 17 W/m² | - |
| 1778019747 | 15.56° C | 63% | 1005.2 hPa | 0 mm | - | 15 W/m² | - |
| 1778019445 | 15.56° C | 61% | 1005.4 hPa | 0 mm | - | 13 W/m² | - |
| 1778019141 | 16.11° C | 62% | 1005.3 hPa | 0 mm | - | 17 W/m² | - |
| 1778018838 | 16.11° C | 61% | 1005.3 hPa | 0 mm | - | 31 W/m² | - |
| 1778018536 | 16.11° C | 64% | 1005.2 hPa | 0 mm | - | 34 W/m² | - |
| 1778018234 | 16.11° C | 64% | 1005.1 hPa | 0 mm | - | 32 W/m² | - |
| 1778017932 | 16.67° C | 67% | 1004.9 hPa | 0 mm | - | 25 W/m² | - |
* Rain latest hour (hover to see other rain measurements)
** Current wind speed in m/s (hover to see current wind gust speed)